Location: Appleton
(44.2618°N, 88.4157°W)
Time: 17:03:10
(UTC+00:00)

Transit 2A - All Passes

Search period start: 26 February 2021 00:00
Search period end: 08 March 2021 00:00
Orbit: 600 x 958 km, 66.7° (Epoch: 25 February)

Date Brightness Start Highest point End Pass type
(mag) Time Alt. Az. Time Alt. Az. Time Alt. Az.
26 Feb - 00:41:48 10° SSE 00:46:07 24° ESE 00:50:09 10° ENE visible
26 Feb - 02:23:46 10° SW 02:29:03 52° NW 02:33:51 10° NNE visible
26 Feb - 04:11:42 10° NW 04:13:15 11° NW 04:14:46 10° NNW visible
26 Feb - 09:26:19 10° N 09:30:00 25° NE 09:33:38 10° ESE visible
26 Feb - 11:09:11 10° NW 11:13:14 38° WSW 11:17:16 10° S visible
27 Feb - 00:08:49 10° SE 00:12:07 16° ESE 00:15:15 10° ENE visible
27 Feb - 01:49:22 10° SW 01:54:50 74° WNW 01:59:46 10° NNE visible
27 Feb - 03:35:53 10° WNW 03:38:44 15° NW 03:41:28 10° N visible
27 Feb - 08:52:29 10° N 08:55:37 19° NE 08:58:42 10° E visible
27 Feb - 10:34:51 10° NW 10:39:09 60° WSW 10:43:26 10° SSE visible
27 Feb - 23:37:06 10° ESE 23:38:10 11° ESE 23:39:13 10° E daylight
28 Feb - 01:15:12 10° SSW 01:20:40 78° ESE 01:25:37 10° NE visible
28 Feb - 03:00:35 10° W 03:04:18 19° NW 03:07:47 10° N visible
28 Feb - 08:18:51 10° N 08:21:10 14° NE 08:23:27 10° ENE visible
28 Feb - 10:00:38 10° NNW 10:05:01 87° ENE 10:09:23 10° SSE visible
01 Mar - 00:41:12 10° SSW 00:46:31 54° ESE 00:51:21 10° NE visible
01 Mar - 02:25:34 10° WSW 02:29:55 26° NW 02:33:58 10° N visible
01 Mar - 07:45:54 10° NNE 07:46:39 10° NNE 07:47:24 10° NE night (unlit)
01 Mar - 09:26:30 10° NNW 09:30:49 57° NE 09:35:06 10° SE visible
01 Mar - 11:10:58 10° WNW 11:13:26 15° WSW 11:15:54 10° SW visible
02 Mar - 00:07:27 10° S 00:12:26 37° ESE 00:16:59 10° NE visible
02 Mar - 01:50:46 10° WSW 01:55:35 35° NW 02:00:02 10° NNE visible
02 Mar - 08:52:27 10° NNW 08:56:34 38° NE 09:00:39 10° ESE night (unlit)
02 Mar - 10:36:02 10° WNW 10:39:28 23° WSW 10:42:54 10° SSW visible
02 Mar - 23:33:58 10° SSE 23:38:22 25° ESE 23:42:27 10° ENE daylight
03 Mar - 01:16:09 10° SW 01:21:19 48° NW 01:26:02 10° NNE visible
03 Mar - 03:04:40 10° NW 03:05:34 10° NNW 03:06:28 10° NNW visible
03 Mar - 08:18:30 10° NNW 08:22:16 27° NE 08:25:58 10° ESE night (unlit)
03 Mar - 10:01:28 10° NW 10:05:26 35° WSW 10:09:25 10° S night (unlit)
03 Mar - 23:00:54 10° SSE 23:04:21 17° ESE 23:07:37 10° ENE daylight
04 Mar - 00:41:44 10° SW 00:47:06 69° WNW 00:51:57 10° NNE visible
04 Mar - 02:28:31 10° WNW 02:31:03 14° NW 02:33:30 10° N visible
04 Mar - 07:44:39 10° N 07:47:54 20° NE 07:51:06 10° E night (unlit)
04 Mar - 09:27:06 10° NW 09:31:21 55° WSW 09:35:38 10° SSE night (unlit)
04 Mar - 22:28:45 10° ESE 22:30:23 11° ESE 22:31:58 10° E daylight
05 Mar - 00:07:30 10° SSW 00:12:55 83° ESE 00:17:49 10° NNE visible
05 Mar - 01:53:07 10° W 01:56:36 18° NW 01:59:53 10° N visible
05 Mar - 07:10:59 10° N 07:13:27 15° NE 07:15:54 10° ENE night (unlit)
05 Mar - 08:52:51 10° NNW 08:57:14 86° WSW 09:01:36 10° SSE night (unlit)
05 Mar - 23:33:29 10° SSW 23:38:46 57° ESE 23:43:35 10° NE daylight
06 Mar - 01:18:03 10° W 01:22:12 24° NW 01:26:05 10° N visible
06 Mar - 06:37:46 10° NNE 06:38:57 11° NNE 06:40:08 10° NE night (unlit)
06 Mar - 08:18:43 10° NNW 08:23:03 62° NE 08:27:23 10° SE night (unlit)
06 Mar - 10:03:26 10° WNW 10:05:37 14° WSW 10:07:50 10° SW night (unlit)
06 Mar - 22:59:41 10° S 23:04:40 39° ESE 23:09:14 10° NE daylight
07 Mar - 00:43:12 10° WSW 00:47:52 32° NW 00:52:11 10° NNE visible
07 Mar - 07:44:39 10° NNW 07:48:49 41° NE 07:52:57 10° ESE night (unlit)
07 Mar - 09:28:22 10° WNW 09:31:39 21° WSW 09:34:58 10° SSW night (unlit)
07 Mar - 22:26:09 10° SSE 22:30:36 27° ESE 22:34:44 10° NE daylight
